When you browse on this site, cookies collect data to enhance your experience and personalize the content and advertising you see.
Visit our Privacy Policy to learn more. By continuing to use the site, you agree to this use of cookies and data.
  • In Hungary
  • List of Countries
  • For 7 days
  • Water Temperature
  • Satellite Maps
  • Weather Map
  • News
  • Weather Widgets
  • user-avatar
    Login

    Hourly Weather Kwekwe

    Today, 23 February, Saturday

    Time Temperature Precipitation Wind Pressure Humidity
    00:00 +18°C° 0 mm 3 mps 661 mmHg 88%
    01:00 +18°C° 0 mm 2 mps 661 mmHg 91%
    02:00 +17°C° 0 mm 2 mps 661 mmHg 95%
    03:00 +16°C° 0 mm 2 mps 661 mmHg 96%
    04:00 +16°C° 0 mm 2 mps 660 mmHg 96%
    05:00 +15°C° 0 mm 2 mps 660 mmHg 97%
    06:00 +17°C° 0 mm 2 mps 661 mmHg 87%
    07:00 +19°C° 0 mm 2 mps 661 mmHg 78%
    08:00 +20°C° 0 mm 2 mps 662 mmHg 69%
    09:00 +24°C° 0 mm 2 mps 662 mmHg 57%
    10:00 +28°C° 0 mm 1 mps 663 mmHg 45%
    11:00 +31°C° 0 mm 1 mps 663 mmHg 34%
    12:00 +32°C° 0 mm 1 mps 663 mmHg 30%
    13:00 +31°C° 0 mm 0 mps 662 mmHg 27%
    14:00 +32°C° 0 mm 0 mps 662 mmHg 24%
    15:00 +31°C° 0 mm 0 mps 661 mmHg 25%
    16:00 +30°C° 0 mm 0 mps 661 mmHg 26%
    17:00 +31°C° 0 mm 1 mps 660 mmHg 26%
    18:00 +29°C° 0 mm 1 mps 660 mmHg 32%
    19:00 +26°C° 0 mm 1 mps 659 mmHg 38%
    20:00 +23°C° 0 mm 1 mps 659 mmHg 44%
    21:00 +22°C° 0 mm 1 mps 659 mmHg 47%
    22:00 +22°C° 0 mm 1 mps 659 mmHg 49%
    23:00 +19°C° 0 mm 0 mps 659 mmHg 52%

    Tomorrow, 24 February, Sunday

    Time Temperature Precipitation Wind Pressure Humidity
    00:00 +18°C° 0 mm 0 mps 659 mmHg 55%
    01:00 +18°C° 0 mm 0 mps 659 mmHg 57%
    02:00 +17°C° 0 mm 0 mps 659 mmHg 59%
    03:00 +17°C° 0 mm 0 mps 659 mmHg 61%
    04:00 +17°C° 0 mm 0 mps 658 mmHg 63%
    05:00 +16°C° 0 mm 0 mps 658 mmHg 64%
    06:00 +18°C° 0 mm 0 mps 659 mmHg 62%
    07:00 +20°C° 0 mm 0 mps 660 mmHg 59%
    08:00 +23°C° 0 mm 1 mps 660 mmHg 57%
    09:00 +26°C° 0 mm 1 mps 661 mmHg 51%
    10:00 +28°C° 0 mm 2 mps 661 mmHg 46%
    11:00 +30°C° 0 mm 2 mps 661 mmHg 41%
    12:00 +32°C° 0 mm 2 mps 661 mmHg 37%
    13:00 +34°C° 0 mm 1 mps 661 mmHg 33%
    14:00 +34°C° 0 mm 0 mps 661 mmHg 29%
    15:00 +35°C° 0 mm 1 mps 660 mmHg 33%
    16:00 +33°C° 0 mm 1 mps 660 mmHg 37%
    17:00 +31°C° 0 mm 1 mps 659 mmHg 41%
    18:00 +29°C° 0 mm 1 mps 659 mmHg 45%
    19:00 +28°C° 0 mm 1 mps 659 mmHg 49%
    20:00 +26°C° 0 mm 1 mps 659 mmHg 53%
    21:00 +25°C° 0 mm 1 mps 659 mmHg 56%
    22:00 +22°C° 0 mm 0 mps 659 mmHg 59%
    23:00 +21°C° 0 mm 0 mps 660 mmHg 63%

    Day after tomorrow, 25 February, Monday

    Time Temperature Precipitation Wind Pressure Humidity
    00:00 +21°C° 0 mm 0 mps 659 mmHg 65%
    01:00 +20°C° 0 mm 0 mps 659 mmHg 67%
    02:00 +19°C° 0 mm 0 mps 658 mmHg 69%
    03:00 +19°C° 0 mm 0 mps 658 mmHg 71%
    04:00 +18°C° 0 mm 0 mps 658 mmHg 73%
    05:00 +18°C° 0 mm 0 mps 658 mmHg 75%
    06:00 +20°C° 0 mm 0 mps 659 mmHg 69%
    07:00 +22°C° 0 mm 0 mps 660 mmHg 63%
    08:00 +24°C° 0 mm 0 mps 661 mmHg 57%
    09:00 +26°C° 0 mm 0 mps 661 mmHg 51%
    10:00 +31°C° 0 mm 1 mps 662 mmHg 44%
    11:00 +33°C° 0 mm 1 mps 662 mmHg 38%
    12:00 +34°C° 0 mm 1 mps 662 mmHg 36%
    13:00 +34°C° 0 mm 1 mps 661 mmHg 34%
    14:00 +33°C° 0 mm 0 mps 661 mmHg 33%
    15:00 +34°C° 0 mm 1 mps 660 mmHg 34%
    16:00 +33°C° 0 mm 1 mps 660 mmHg 35%
    17:00 +33°C° 0 mm 1 mps 660 mmHg 36%
    18:00 +30°C° 0.1 mm 2 mps 660 mmHg 45%
    19:00 +28°C° 0.1 mm 4 mps 660 mmHg 55%
    20:00 +25°C° 0.1 mm 5 mps 660 mmHg 64%
    21:00 +24°C° 0.1 mm 3 mps 660 mmHg 67%
    22:00 +24°C° 0.1 mm 2 mps 660 mmHg 70%
    23:00 +23°C° 0.1 mm 1 mps 660 mmHg 73%

    26 February, Tuesday

    Time Temperature Precipitation Wind Pressure Humidity
    00:00 +23°C° 0 mm 1 mps 660 mmHg 73%
    01:00 +20°C° 0 mm 0 mps 659 mmHg 74%
    02:00 +20°C° 0 mm 0 mps 659 mmHg 74%
    03:00 +20°C° 0 mm 0 mps 659 mmHg 75%
    04:00 +21°C° 0 mm 1 mps 659 mmHg 76%
    05:00 +21°C° 0 mm 1 mps 659 mmHg 77%
    06:00 +23°C° 0 mm 1 mps 659 mmHg 73%
    07:00 +24°C° 0 mm 1 mps 660 mmHg 68%
    08:00 +25°C° 0 mm 1 mps 661 mmHg 64%
    09:00 +28°C° 0 mm 1 mps 661 mmHg 56%
    10:00 +30°C° 0 mm 2 mps 661 mmHg 48%
    11:00 +34°C° 0 mm 2 mps 662 mmHg 40%
    12:00 +34°C° 0 mm 2 mps 661 mmHg 39%
    13:00 +34°C° 0 mm 2 mps 660 mmHg 38%
    14:00 +34°C° 0 mm 2 mps 660 mmHg 37%
    15:00 +33°C° 0 mm 1 mps 659 mmHg 39%
    16:00 +32°C° 0 mm 1 mps 659 mmHg 40%
    17:00 +32°C° 0 mm 1 mps 659 mmHg 42%
    18:00 +30°C° 0 mm 1 mps 658 mmHg 49%
    19:00 +27°C° 0 mm 1 mps 658 mmHg 56%
    20:00 +25°C° 0 mm 1 mps 658 mmHg 63%
    21:00 +24°C° 0 mm 1 mps 658 mmHg 66%
    22:00 +24°C° 0 mm 1 mps 659 mmHg 69%
    23:00 +23°C° 0 mm 1 mps 659 mmHg 72%

    27 February, Wednesday

    Time Temperature Precipitation Wind Pressure Humidity
    00:00 +20°C° 0.1 mm 0 mps 658 mmHg 75%
    01:00 +20°C° 0.1 mm 0 mps 658 mmHg 79%
    02:00 +19°C° 0.1 mm 0 mps 658 mmHg 82%
    03:00 +19°C° 0 mm 0 mps 658 mmHg 83%
    04:00 +19°C° 0 mm 0 mps 658 mmHg 85%
    05:00 +20°C° 0 mm 1 mps 658 mmHg 86%
    06:00 +22°C° 0 mm 1 mps 659 mmHg 80%
    07:00 +24°C° 0 mm 1 mps 659 mmHg 75%
    08:00 +25°C° 0 mm 1 mps 660 mmHg 69%
    09:00 +28°C° 0 mm 1 mps 661 mmHg 60%
    10:00 +30°C° 0 mm 2 mps 661 mmHg 51%
    11:00 +32°C° 0 mm 2 mps 662 mmHg 43%
    12:00 +35°C° 0 mm 2 mps 661 mmHg 39%
    13:00 +36°C° 0 mm 1 mps 661 mmHg 35%
    14:00 +36°C° 0 mm 0 mps 661 mmHg 31%
    15:00 +34°C° 0 mm 0 mps 660 mmHg 35%
    16:00 +34°C° 0 mm 1 mps 660 mmHg 39%
    17:00 +32°C° 0 mm 1 mps 659 mmHg 44%
    18:00 +30°C° 0 mm 1 mps 659 mmHg 48%
    19:00 +28°C° 0 mm 2 mps 660 mmHg 52%
    20:00 +27°C° 0 mm 2 mps 660 mmHg 55%
    21:00 +25°C° 2.4 mm 2 mps 660 mmHg 63%
    22:00 +22°C° 2.4 mm 3 mps 660 mmHg 71%
    23:00 +21°C° 2.4 mm 3 mps 660 mmHg 78%

    28 February, Thursday

    Time Temperature Precipitation Wind Pressure Humidity
    00:00 +21°C° 0.2 mm 2 mps 660 mmHg 75%
    01:00 +23°C° 0.2 mm 2 mps 659 mmHg 71%
    02:00 +23°C° 0.2 mm 1 mps 659 mmHg 67%
    03:00 +21°C° 0.2 mm 2 mps 660 mmHg 72%
    04:00 +21°C° 0.2 mm 2 mps 660 mmHg 78%
    05:00 +20°C° 0.2 mm 3 mps 660 mmHg 83%
    06:00 +21°C° 0 mm 3 mps 661 mmHg 79%
    07:00 +23°C° 0 mm 4 mps 661 mmHg 75%
    08:00 +25°C° 0 mm 4 mps 662 mmHg 70%
    09:00 +28°C° 0 mm 4 mps 662 mmHg 59%
    10:00 +30°C° 0 mm 4 mps 663 mmHg 47%
    11:00 +34°C° 0 mm 3 mps 663 mmHg 35%
    12:00 +34°C° 0 mm 3 mps 663 mmHg 33%
    13:00 +35°C° 0 mm 3 mps 662 mmHg 30%
    14:00 +36°C° 0 mm 3 mps 662 mmHg 27%
    15:00 +34°C° 0 mm 4 mps 661 mmHg 36%
    16:00 +33°C° 0 mm 4 mps 661 mmHg 44%
    17:00 +30°C° 0 mm 5 mps 660 mmHg 53%
    18:00 +28°C° 0 mm 5 mps 660 mmHg 59%
    19:00 +26°C° 0 mm 5 mps 660 mmHg 65%
    20:00 +23°C° 0 mm 5 mps 661 mmHg 72%
    21:00 +22°C° 0 mm 5 mps 661 mmHg 76%
    22:00 +22°C° 0 mm 4 mps 661 mmHg 80%
    23:00 +21°C° 0 mm 4 mps 661 mmHg 84%
    Show more